Time,TemperatureF,DewpointF,PressureIn,WindDirection,WindDirectionDegrees,WindSpeedMPH,WindSpeedGustMPH,Humidity,HourlyPrecipIn,Conditions,Clouds,dailyrainin,SoftwareType,DateUTC
2013-12-14 00:22:00,27.0,24.0,-100.00,NE,55,0.0,1.0,87,-99.99,,,-99.99,,2013-12-14 05:22:00,
2013-12-14 00:52:00,27.0,24.0,-100.00,South,175,1.0,4.0,88,-99.99,,,-99.99,,2013-12-14 05:52:00,
2013-12-14 01:22:00,27.0,24.0,-100.00,South,185,1.0,2.0,88,-99.99,,,-99.99,,2013-12-14 06:22:00,
2013-12-14 01:52:00,27.0,24.0,-100.00,South,180,2.0,4.0,89,-99.99,,,-99.99,,2013-12-14 06:52:00,
2013-12-14 02:22:00,27.0,24.0,-100.00,East,80,2.0,4.0,89,-99.99,,,-99.99,,2013-12-14 07:22:00,
2013-12-14 02:52:00,26.0,24.0,-100.00,East,90,0.0,2.0,91,-99.99,,,-99.99,,2013-12-14 07:52:00,
2013-12-14 03:22:00,26.0,24.0,-100.00,SE,145,1.0,2.0,92,-99.99,,,-99.99,,2013-12-14 08:22:00,
2013-12-14 03:52:00,26.0,25.0,-100.00,SSE,150,1.0,2.0,93,-99.99,,,-99.99,,2013-12-14 08:52:00,
2013-12-14 04:22:00,26.0,25.0,-100.00,SSE,165,0.0,1.0,94,-99.99,,,-99.99,,2013-12-14 09:22:00,
2013-12-14 04:54:00,26.0,25.0,-100.00,SE,130,0.0,2.0,95,-99.99,,,-99.99,,2013-12-14 09:54:00,
2013-12-14 05:23:00,26.0,25.0,-100.00,SE,135,0.0,3.0,96,-99.99,,,-99.99,,2013-12-14 10:23:00,
2013-12-14 05:53:00,26.0,26.0,-100.00,SE,145,1.0,2.0,96,-99.99,,,-99.99,,2013-12-14 10:53:00,
2013-12-14 06:23:00,26.0,26.0,-100.00,East,80,1.0,2.0,97,-99.99,,,-99.99,,2013-12-14 11:23:00,
2013-12-14 06:52:00,26.0,26.0,-100.00,ENE,75,0.0,2.0,98,-99.99,,,-99.99,,2013-12-14 11:52:00,
2013-12-14 07:22:00,26.0,26.0,-100.00,SSE,160,1.0,4.0,98,-99.99,,,-99.99,,2013-12-14 12:22:00,
2013-12-14 07:52:00,27.0,26.0,-100.00,East,85,0.0,1.0,98,-99.99,,,-99.99,,2013-12-14 12:52:00,
2013-12-14 08:22:00,27.0,26.0,-100.00,East,80,1.0,2.0,99,-99.99,,,-99.99,,2013-12-14 13:22:00,
2013-12-14 08:52:00,27.0,27.0,-100.00,East,90,0.0,3.0,99,-99.99,,,-99.99,,2013-12-14 13:52:00,
2013-12-14 09:22:00,28.0,28.0,-100.00,SSW,195,1.0,3.0,99,-99.99,,,-99.99,,2013-12-14 14:22:00,
2013-12-14 09:52:00,28.0,28.0,-100.00,NE,50,1.0,3.0,99,-99.99,,,-99.99,,2013-12-14 14:52:00,
2013-12-14 10:22:00,28.0,28.0,-100.00,SE,125,1.0,5.0,99,-99.99,,,-99.99,,2013-12-14 15:22:00,
2013-12-14 10:53:00,29.0,29.0,-100.00,ENE,65,1.0,6.0,99,-99.99,,,-99.99,,2013-12-14 15:53:00,
2013-12-14 11:23:00,29.0,29.0,-100.00,East,100,1.0,3.0,99,-99.99,,,-99.99,,2013-12-14 16:23:00,
2013-12-14 11:52:00,30.0,30.0,-100.00,NE,50,0.0,4.0,99,-99.99,,,-99.99,,2013-12-14 16:52:00,
2013-12-14 12:23:00,30.0,30.0,-100.00,ENE,65,1.0,3.0,99,-99.99,,,-99.99,,2013-12-14 17:23:00,
2013-12-14 12:53:00,31.0,31.0,-100.00,East,85,1.0,3.0,99,-99.99,,,-99.99,,2013-12-14 17:53:00,
2013-12-14 13:22:00,31.0,31.0,-100.00,East,90,2.0,5.0,99,-99.99,,,-99.99,,2013-12-14 18:22:00,
2013-12-14 13:52:00,31.0,31.0,-100.00,ESE,115,1.0,6.0,99,-99.99,,,-99.99,,2013-12-14 18:52:00,
2013-12-14 14:22:00,32.0,32.0,-100.00,ENE,70,1.0,6.0,99,-99.99,,,-99.99,,2013-12-14 19:22:00,
2013-12-14 14:52:00,32.0,32.0,-100.00,East,100,1.0,3.0,99,-99.99,,,-99.99,,2013-12-14 19:52:00,
2013-12-14 15:22:00,32.0,32.0,-100.00,ESE,110,0.0,4.0,99,-99.99,,,-99.99,,2013-12-14 20:22:00,
2013-12-14 15:53:00,32.0,32.0,-100.00,NE,40,1.0,6.0,99,-99.99,,,-99.99,,2013-12-14 20:53:00,
2013-12-14 16:22:00,32.0,32.0,-100.00,East,85,0.0,1.0,99,-99.99,,,-99.99,,2013-12-14 21:22:00,
2013-12-14 16:54:00,32.0,32.0,-100.00,ENE,65,0.0,2.0,99,-99.99,,,-99.99,,2013-12-14 21:54:00,
2013-12-14 17:23:00,32.0,32.0,-100.00,SSE,165,0.0,3.0,99,-99.99,,,-99.99,,2013-12-14 22:23:00,
2013-12-14 17:52:00,33.0,33.0,-100.00,SSE,165,0.0,2.0,99,-99.99,,,-99.99,,2013-12-14 22:52:00,
2013-12-14 18:22:00,33.0,33.0,-100.00,South,170,0.0,1.0,99,-99.99,,,-99.99,,2013-12-14 23:22:00,
2013-12-14 18:53:00,33.0,33.0,-100.00,SSE,150,0.0,1.0,99,-99.99,,,-99.99,,2013-12-14 23:53:00,
2013-12-14 19:22:00,33.0,33.0,-100.00,South,185,1.0,2.0,99,-99.99,,,-99.99,,2013-12-15 00:22:00,
2013-12-14 19:52:00,33.0,33.0,-100.00,South,180,0.0,2.0,99,-99.99,,,-99.99,,2013-12-15 00:52:00,
2013-12-14 20:21:00,33.0,33.0,-100.00,South,185,0.0,1.0,99,-99.99,,,-99.99,,2013-12-15 01:21:00,
2013-12-14 20:52:00,33.0,33.0,-100.00,NW,315,0.0,0.0,99,-99.99,,,-99.99,,2013-12-15 01:52:00,
2013-12-14 21:22:00,33.0,33.0,-100.00,NW,320,0.0,0.0,99,-99.99,,,-99.99,,2013-12-15 02:22:00,
2013-12-14 21:52:00,33.0,33.0,-100.00,WNW,290,0.0,0.0,99,-99.99,,,-99.99,,2013-12-15 02:52:00,
2013-12-14 22:22:00,33.0,33.0,-100.00,WNW,285,0.0,0.0,99,-99.99,,,-99.99,,2013-12-15 03:22:00,
2013-12-14 22:30:00,33.0,33.0,-100.00,West,270,0.0,0.0,99,-99.99,,,-99.99,,2013-12-15 03:30:00,
2013-12-14 22:33:00,33.0,33.0,-100.00,WNW,285,0.0,0.0,99,-99.99,,,-99.99,,2013-12-15 03:33:00,
2013-12-14 22:43:00,33.0,33.0,-100.00,WNW,285,0.0,0.0,99,-99.99,,,-99.99,,2013-12-15 03:43:00,
2013-12-14 23:03:00,-999.0,-99.9,-100.00,West,270,0.0,0.0,-999,-99.99,,,-99.99,,2013-12-15 04:03:00,
2013-12-14 23:13:00,33.0,33.0,-100.00,West,270,0.0,0.0,99,-99.99,,,-99.99,,2013-12-15 04:13:00,
2013-12-14 23:23:00,33.0,33.0,-100.00,West,270,0.0,0.0,99,-99.99,,,-99.99,,2013-12-15 04:23:00,